EW0534 Weather Reports


time (UTC)temp
F
wind
direction
speed
knots
gust
knots
rain 1hr
in
rain 24hr
in
rain mn
in
humidity
%
barometer
mb
20260505010020 70 190 2.6 6.1 0.00 0.00 0.00 54 1005.5
20260505005520 71 254 2.6 6.1 0.00 0.00 0.00 53 1005.5
20260505005021 71 196 1.7 7.0 0.00 0.00 0.00 53 1005.5
20260505004521 71 206 3.5 7.0 0.00 0.00 0.00 52 1005.4
20260505004018 71 245 2.6 8.7 0.00 0.00 0.00 52 1005.5
20260505003521 71 179 2.6 8.7 0.00 0.00 0.00 52 1005.5
20260505003018 72 180 2.6 8.7 0.00 0.00 0.00 51 1005.5
20260505002518 72 190 2.6 8.7 0.00 0.00 0.00 51 1005.5
20260505002018 72 184 2.6 7.0 0.00 0.00 0.00 51 1005.6
20260505001518 72 203 2.6 7.0 0.00 0.00 0.00 50 1005.7
20260505001016 73 234 1.7 6.1 0.00 0.00 0.00 50 1005.7
20260505000519 73 188 1.7 6.1 0.00 0.00 0.00 49 1005.8
20260505000022 73 221 1.7 6.1 0.00 0.00 0.00 49 1005.8
20260504235516 73 243 3.5 10.4 0.00 0.00 0.00 48 1005.8
20260504235016 74 294 3.5 10.4 0.00 0.00 0.00 49 1005.8
20260504234516 74 190 3.5 11.3 0.00 0.00 0.00 48 1005.8
20260504234015 74 184 3.5 10.4 0.00 0.00 0.00 49 1005.8
20260504233515 74 233 3.5 13.0 0.00 0.00 0.00 47 1005.9
20260504233015 74 255 4.3 13.0 0.00 0.00 0.00 47 1005.9
20260504232516 74 284 4.3 10.4 0.00 0.00 0.00 47 1006.0
20260504232015 74 183 5.2 10.4 0.00 0.00 0.00 47 1005.9
20260504231514 74 224 2.6 11.3 0.00 0.00 0.00 47 1005.9
20260504231017 74 138 4.3 12.2 0.00 0.00 0.00 47 1005.9
20260504230513 74 180 7.0 12.2 0.00 0.00 0.00 47 1006.1
20260504230012 74 205 3.5 10.4 0.00 0.00 0.00 50 1006.2
20260504225511 74 184 5.2 9.6 0.00 0.00 0.00 51 1006.2
20260504225012 74 217 3.5 9.6 0.00 0.00 0.00 52 1006.2
20260504224511 74 301 1.7 6.1 0.00 0.00 0.00 54 1006.1
20260504224013 74 236 1.7 7.8 0.00 0.00 0.00 54 1006.2
20260504223511 74 164 3.5 8.7 0.00 0.00 0.00 53 1006.1
20260504223012 74 163 4.3 8.7 0.00 0.00 0.00 53 1006.1
20260504222510 74 185 3.5 9.6 0.00 0.00 0.00 52 1006.1
20260504222010 74 174 3.5 9.6 0.00 0.00 0.00 52 1006.5
20260504221510 74 251 2.6 8.7 0.00 0.00 0.00 53 1006.6
20260504221007 75 209 4.3 9.6 0.00 0.00 0.00 51 1006.6
20260504220509 74 235 2.6 7.8 0.00 0.00 0.00 52 1006.7
20260504220018 75 211 2.6 9.6 0.00 0.00 0.00 52 1006.7
20260504215510 75 188 2.6 9.6 0.00 0.00 0.00 53 1006.8
20260504215010 75 236 2.6 7.8 0.00 0.00 0.00 52 1006.8
20260504214505 75 219 1.7 5.2 0.00 0.00 0.00 54 1006.9
20260504214003 74 285 1.7 5.2 0.00 0.00 0.00 54 1006.9
20260504213503 74 241 1.7 6.1 0.00 0.00 0.00 53 1007.0
20260504213003 74 214 3.5 6.1 0.00 0.00 0.00 52 1007.1
20260504212503 74 225 1.7 5.2 0.00 0.00 0.00 53 1007.1
20260504212004 74 264 1.7 6.1 0.00 0.00 0.00 53 1007.1
20260504211505 73 250 0.9 8.7 0.00 0.00 0.00 54 1007.1
20260504211001 74 309 2.6 8.7 0.00 0.00 0.00 52 1007.1
20260504210502 74 261 2.6 7.8 0.00 0.00 0.00 51 1007.2
20260504210106 74 302 3.5 7.8 0.00 0.00 0.00 52 1007.3
20260504205600 73 216 0.9 10.4 0.00 0.00 0.00 54 1007.4
20260504205059 73 203 3.5 10.4 0.00 0.00 0.00 51 1007.4
20260504204605 74 282 2.6 10.4 0.00 0.00 0.00 51 1007.5
20260504204100 74 183 3.5 10.4 0.00 0.00 0.00 53 1007.4
20260504203558 75 243 2.6 8.7 0.00 0.00 0.00 53 1007.5
20260504203058 74 229 4.3 8.7 0.00 0.00 0.00 53 1007.5
20260504202556 74 215 4.3 8.7 0.00 0.00 0.00 55 1007.5
20260504202057 74 213 2.6 14.8 0.00 0.00 0.00 57 1007.7
20260504201556 73 194 4.3 14.8 0.00 0.00 0.00 54 1007.7
20260504201053 72 259 3.5 7.8 0.00 0.00 0.00 56 1007.9
20260504200554 72 234 3.5 11.3 0.00 0.00 0.00 55 1008.0
20260504200055 73 244 2.6 7.0 0.00 0.00 0.00 57 1008.1
20260504195552 73 215 2.6 9.6 0.00 0.00 0.00 56 1008.3
20260504195052 72 243 4.3 12.2 0.00 0.00 0.00 58 1008.4
20260504194557 71 298 3.5 12.2 0.00 0.00 0.00 58 1008.6
20260504194052 72 292 4.3 8.7 0.00 0.00 0.00 56 1008.6
20260504193551 73 258 2.6 8.7 0.00 0.00 0.00 58 1008.7
20260504193103 73 236 2.6 8.7 0.00 0.00 0.00 59 1008.8
20260504192548 71 257 2.6 8.7 0.00 0.00 0.00 63 1008.8
20260504192050 70 232 2.6 7.8 0.00 0.00 0.00 64 1009.0
20260504191547 69 250 2.6 7.8 0.00 0.00 0.00 62 1009.1
20260504191047 69 257 1.7 7.8 0.00 0.00 0.00 63 1009.1
20260504190547 69 272 3.5 12.2 0.00 0.00 0.00 62 1009.1
20260504190053 69 294 3.5 12.2 0.00 0.00 0.00 62 1009.1
20260504185546 68 238 3.5 12.2 0.00 0.00 0.00 62 1009.1
20260504185040 69 232 4.3 13.0 0.00 0.00 0.00 60 1009.0
20260504184543 69 207 3.5 9.6 0.00 0.00 0.00 60 1008.9
20260504184042 70 209 3.5 7.8 0.00 0.00 0.00 60 1008.7
20260504183540 69 206 1.7 13.0 0.00 0.00 0.00 61 1008.7
20260504183054 68 196 5.2 15.6 0.00 0.00 0.00 59 1008.6
20260504182539 69 186 3.5 15.6 0.00 0.00 0.00 58 1008.6
20260504182039 69 195 4.3 13.0 0.00 0.00 0.00 59 1008.6
20260504181540 68 232 5.2 13.0 0.00 0.00 0.00 58 1008.6
20260504181039 69 185 5.2 12.2 0.00 0.00 0.00 57 1008.5
20260504180541 70 241 3.5 10.4 0.00 0.00 0.00 61 1008.4
20260504180058 69 226 2.6 8.7 0.00 0.00 0.00 63 1008.5
20260504175539 69 243 2.6 8.7 0.00 0.00 0.00 63 1008.4
20260504175037 68 186 3.5 8.7 0.00 0.00 0.00 64 1008.6
20260504174536 68 265 3.5 11.3 0.00 0.00 0.00 64 1008.6
20260504174032 67 157 5.2 11.3 0.00 0.00 0.00 63 1008.1
20260504173532 67 194 4.3 7.8 0.00 0.00 0.00 63 1008.0
20260504173031 67 223 4.3 7.0 0.00 0.00 0.00 63 1008.4
20260504172528 67 202 2.6 9.6 0.00 0.00 0.00 64 1008.4
20260504172028 67 186 3.5 7.8 0.00 0.00 0.00 63 1008.7
20260504171528 66 216 2.6 7.0 0.00 0.00 0.00 65 1008.8
20260504171028 66 176 1.7 7.8 0.00 0.00 0.00 65 1008.4
20260504170527 66 187 4.3 7.8 0.00 0.00 0.00 62 1008.7
20260504151015 63 206 2.6 9.6 0.00 0.00 0.00 66 1009.4
20260504150517 62 177 2.6 9.6 0.00 0.00 0.00 67 1009.5
20260504141005 59 183 2.6 10.4 0.00 0.00 0.00 71 1009.9
20260504140503 59 188 6.1 11.3 0.00 0.00 0.00 71 1010.1
20260504130552 55 202 3.5 8.7 0.00 0.00 0.00 72 1010.6
20260504110532 51 177 1.7 4.3 0.00 0.00 0.00 70 1010.5
20260504100524 51 171 1.7 3.5 0.00 0.00 0.00 69 1010.5
20260504081515 50 162 1.7 4.3 0.00 0.00 0.00 68 1011.4
20260504081015 50 179 1.7 3.5 0.00 0.00 0.00 67 1011.4
20260504080514 50 171 0.9 3.5 0.00 0.00 0.00 67 1011.5
20260504060107 52 191 0.9 3.5 0.00 0.00 0.00 63 1012.8
20260504050554 52 178 0.9 4.3 0.00 0.00 0.00 63 1013.2
20260504050105 52 206 1.7 5.2 0.00 0.00 0.00 63 1013.2
20260504045553 52 169 1.7 5.2 0.00 0.00 0.00 64 1013.2
20260504045053 51 178 0.9 2.6 0.00 0.00 0.00 64 1013.2
20260504044553 52 178 0.9 3.5 0.00 0.00 0.00 64 1013.2
20260504044052 52 164 0.9 3.5 0.00 0.00 0.00 63 1013.3
20260504043557 52 181 0.9 3.5 0.00 0.00 0.00 63 1013.3
20260504043059 52 166 0.9 3.5 0.00 0.00 0.00 63 1013.4
20260504042550 52 184 0.9 2.6 0.00 0.00 0.00 62 1013.5
20260504042053 52 183 0.9 2.6 0.00 0.00 0.00 61 1013.6
20260504041549 53 162 0.9 2.6 0.00 0.00 0.00 61 1013.6
20260504041048 53 192 0.9 2.6 0.00 0.00 0.00 61 1013.6
20260504040548 53 190 0.0 4.3 0.00 0.00 0.00 60 1013.7
20260504040054 53 190 1.7 4.3 0.00 0.00 0.00 60 1013.8
20260504035548 53 204 0.9 4.3 0.00 0.00 0.00 59 1013.9
20260504035049 53 202 2.6 5.2 0.00 0.00 0.00 59 1013.9
20260504034552 54 209 2.6 5.2 0.00 0.00 0.00 59 1013.9
20260504034045 54 196 1.7 5.2 0.00 0.00 0.00 58 1014.0
20260504033545 54 197 1.7 5.2 0.00 0.00 0.00 58 1014.0
20260504033046 54 194 0.9 4.3 0.00 0.00 0.00 57 1014.0
20260504032546 54 178 0.9 4.3 0.00 0.00 0.00 57 1014.0
20260504032048 54 185 1.7 4.3 0.00 0.00 0.00 57 1014.0
20260504031546 54 186 0.9 3.5 0.00 0.00 0.00 57 1014.2
20260504031044 55 188 1.7 3.5 0.00 0.00 0.00 56 1014.2
20260504030544 55 200 0.9 2.6 0.00 0.00 0.00 55 1014.3
20260504030048 55 200 0.9 3.5 0.00 0.00 0.00 55 1014.2
20260504025546 55 210 0.9 3.5 0.00 0.00 0.00 54 1014.3
20260504025047 55 210 0.9 4.3 0.00 0.00 0.00 54 1014.3
20260504024543 55 202 0.9 4.3 0.00 0.00 0.00 53 1014.3
20260504024043 56 190 1.7 4.3 0.00 0.00 0.00 53 1014.2
20260504023545 56 192 1.7 4.3 0.00 0.00 0.00 52 1014.2
20260504023043 56 196 1.7 4.3 0.00 0.00 0.00 52 1014.3
20260504022543 56 198 0.9 4.3 0.00 0.00 0.00 52 1014.2
20260504022047 56 273 0.9 4.3 0.00 0.00 0.00 51 1014.3
20260504021545 56 204 1.7 5.2 0.00 0.00 0.00 51 1014.2
20260504021044 56 202 1.7 4.3 0.00 0.00 0.00 51 1014.3
20260504020542 55 227 2.6 4.3 0.00 0.00 0.00 51 1014.4
20260504020053 55 180 1.7 4.3 0.00 0.00 0.00 53 1014.1
20260504015542 55 158 0.9 1.7 0.00 0.00 0.00 53 1014.0
20260504015042 55 158 0.0 0.0 0.00 0.00 0.00 53 1014.0
20260504014549 55 158 0.0 0.0 0.00 0.00 0.00 54 1014.0
20260504014042 56 158 0.0 0.9 0.00 0.00 0.00 53 1014.0
20260504013541 56 158 0.0 0.9 0.00 0.00 0.00 52 1014.0
20260504013042 56 158 0.0 0.9 0.00 0.00 0.00 51 1014.0
20260504012543 56 158 0.0 1.7 0.00 0.00 0.00 52 1014.1
20260504012041 56 158 0.0 1.7 0.00 0.00 0.00 49 1014.0
20260504011546 56 158 0.0 1.7 0.00 0.00 0.00 47 1014.0
20260504011041 56 158 0.0 2.6 0.00 0.00 0.00 46 1014.1
20260504010540 57 158 0.9 2.6 0.00 0.00 0.00 46 1014.2